Year,Month,Day,Hour,Minute,Value (Times are PST for temperature in C)
2016,08,11,00,00,17.50
2016,08,11,00,01,17.40
2016,08,11,00,02,17.40
2016,08,11,00,03,17.40
2016,08,11,00,04,17.40
2016,08,11,00,05,17.40
2016,08,11,00,06,17.40
2016,08,11,00,07,17.40
2016,08,11,00,08,17.40
2016,08,11,00,09,17.40
2016,08,11,00,10,17.40
2016,08,11,00,11,17.40
2016,08,11,00,12,17.40
2016,08,11,00,13,17.40
2016,08,11,00,14,17.30
2016,08,11,00,15,17.30
2016,08,11,00,16,17.30
2016,08,11,00,17,17.30
2016,08,11,00,18,17.30
2016,08,11,00,19,17.30
2016,08,11,00,20,17.30
2016,08,11,00,21,17.30
2016,08,11,00,22,17.30
2016,08,11,00,23,17.30
2016,08,11,00,24,17.20
2016,08,11,00,25,17.20
2016,08,11,00,26,17.20
2016,08,11,00,27,17.20
2016,08,11,00,28,17.20
2016,08,11,00,29,17.20
2016,08,11,00,30,17.20
2016,08,11,00,31,17.20
2016,08,11,00,32,17.20
2016,08,11,00,33,17.20
2016,08,11,00,34,17.20
2016,08,11,00,35,17.10
2016,08,11,00,36,17.10
2016,08,11,00,37,17.10
2016,08,11,00,38,17.10
2016,08,11,00,39,17.10
2016,08,11,00,40,17.10
2016,08,11,00,41,17.10
2016,08,11,00,42,17.10
2016,08,11,00,43,17.10
2016,08,11,00,44,17.10
2016,08,11,00,45,17.00
2016,08,11,00,46,17.00
2016,08,11,00,47,17.00
2016,08,11,00,48,17.00
2016,08,11,00,49,17.00
2016,08,11,00,50,17.00
2016,08,11,00,51,17.00
2016,08,11,00,52,17.00
2016,08,11,00,53,17.00
2016,08,11,00,54,16.90
2016,08,11,00,55,16.90
2016,08,11,00,56,16.90
2016,08,11,00,57,16.90
2016,08,11,00,58,16.90
2016,08,11,00,59,16.90
2016,08,11,01,00,16.90
2016,08,11,01,01,16.90
2016,08,11,01,02,16.90
2016,08,11,01,03,16.90
2016,08,11,01,04,16.80
2016,08,11,01,05,16.80
2016,08,11,01,06,16.80
2016,08,11,01,07,16.80
2016,08,11,01,08,16.80
2016,08,11,01,09,16.80
2016,08,11,01,10,16.80
2016,08,11,01,11,16.80
2016,08,11,01,14,16.80
2016,08,11,01,16,16.80
2016,08,11,01,17,16.80
2016,08,11,01,18,16.80
2016,08,11,01,19,16.80
2016,08,11,01,20,16.80
2016,08,11,01,21,16.80
2016,08,11,01,22,16.80
2016,08,11,01,23,16.80
2016,08,11,01,24,16.80
2016,08,11,01,25,16.80
2016,08,11,01,26,16.80
2016,08,11,01,27,16.70
2016,08,11,01,28,16.70
2016,08,11,01,29,16.70
2016,08,11,01,30,16.70
2016,08,11,01,31,16.70
2016,08,11,01,32,16.70
2016,08,11,01,33,16.70
2016,08,11,01,34,16.70
2016,08,11,01,35,16.70
2016,08,11,01,36,16.70
2016,08,11,01,37,16.70
2016,08,11,01,38,16.70
2016,08,11,01,39,16.60
2016,08,11,01,40,16.60
2016,08,11,01,41,16.60
2016,08,11,01,42,16.60
2016,08,11,01,43,16.60
2016,08,11,01,44,16.60
2016,08,11,01,45,16.60
2016,08,11,01,46,16.60
2016,08,11,01,47,16.60
2016,08,11,01,48,16.60
2016,08,11,01,49,16.60
2016,08,11,01,50,16.50
2016,08,11,01,51,16.50
2016,08,11,01,52,16.50
2016,08,11,01,53,16.50
2016,08,11,01,54,16.50
2016,08,11,01,55,16.50
2016,08,11,01,56,16.50
2016,08,11,01,57,16.50
2016,08,11,01,58,16.50
2016,08,11,01,59,16.50
2016,08,11,02,00,16.40
2016,08,11,02,01,16.40
2016,08,11,02,02,16.40
2016,08,11,02,04,16.40
2016,08,11,02,05,16.40
2016,08,11,02,06,16.40
2016,08,11,02,07,16.40
2016,08,11,02,09,16.30
2016,08,11,02,10,16.30
2016,08,11,02,12,16.30
2016,08,11,02,13,16.30
2016,08,11,02,14,16.30
2016,08,11,02,15,16.30
2016,08,11,02,16,16.30
2016,08,11,02,17,16.20
2016,08,11,02,18,16.20
2016,08,11,02,19,16.20
2016,08,11,02,20,16.20
2016,08,11,02,21,16.20
2016,08,11,02,22,16.20
2016,08,11,02,23,16.10
2016,08,11,02,24,16.10
2016,08,11,02,25,16.10
2016,08,11,02,26,16.10
2016,08,11,02,27,16.10
2016,08,11,02,28,16.10
2016,08,11,02,29,16.10
2016,08,11,02,30,16.00
2016,08,11,02,31,16.00
2016,08,11,02,32,16.00
2016,08,11,02,33,15.90
2016,08,11,02,34,15.90
2016,08,11,02,35,15.90
2016,08,11,02,36,15.90
2016,08,11,02,37,15.90
2016,08,11,02,38,15.90
2016,08,11,02,39,15.90
2016,08,11,02,40,15.80
2016,08,11,02,41,15.80
2016,08,11,02,42,15.80
2016,08,11,02,43,15.80
2016,08,11,02,44,15.80
2016,08,11,02,45,15.80
2016,08,11,02,46,15.80
2016,08,11,02,47,15.80
2016,08,11,02,48,15.80
2016,08,11,02,49,15.80
2016,08,11,02,50,15.70
2016,08,11,02,51,15.70
2016,08,11,02,52,15.70
2016,08,11,02,53,15.70
2016,08,11,02,54,15.70
2016,08,11,02,55,15.70
2016,08,11,02,56,15.70
2016,08,11,02,57,15.60
2016,08,11,02,58,15.60
2016,08,11,02,59,15.60
2016,08,11,03,00,15.60
2016,08,11,03,02,15.60
2016,08,11,03,03,15.60
2016,08,11,03,04,15.60
2016,08,11,03,06,15.60
2016,08,11,03,07,15.60
2016,08,11,03,09,15.60
2016,08,11,03,10,15.50
2016,08,11,03,11,15.50
2016,08,11,03,12,15.50
2016,08,11,03,13,15.40
2016,08,11,03,14,15.40
2016,08,11,03,15,15.40
2016,08,11,03,16,15.40
2016,08,11,03,17,15.40
2016,08,11,03,18,15.40
2016,08,11,03,19,15.40
2016,08,11,03,20,15.30
2016,08,11,03,21,15.30
2016,08,11,03,22,15.30
2016,08,11,03,23,15.30
2016,08,11,03,24,15.30
2016,08,11,03,25,15.30
2016,08,11,03,26,15.30
2016,08,11,03,27,15.20
2016,08,11,03,29,15.20
2016,08,11,03,30,15.20
2016,08,11,03,31,15.20
2016,08,11,03,32,15.20
2016,08,11,03,33,15.10
2016,08,11,03,34,15.10
2016,08,11,03,35,15.10
2016,08,11,03,37,15.10
2016,08,11,03,38,15.10
2016,08,11,03,39,15.10
2016,08,11,03,40,15.10
2016,08,11,03,41,15.10
2016,08,11,03,42,15.10
2016,08,11,03,43,15.10
2016,08,11,03,45,15.10
2016,08,11,03,46,15.10
2016,08,11,03,47,15.10
2016,08,11,03,48,15.10
2016,08,11,03,50,15.10
2016,08,11,03,51,15.10
2016,08,11,03,53,15.10
2016,08,11,03,54,15.00
2016,08,11,03,55,15.00
2016,08,11,03,56,15.00
2016,08,11,03,57,15.00
2016,08,11,03,58,15.00
2016,08,11,03,59,14.90
2016,08,11,04,00,14.90
2016,08,11,04,01,14.90
2016,08,11,04,02,14.90
2016,08,11,04,03,14.90
2016,08,11,04,05,14.80
2016,08,11,04,06,14.80
2016,08,11,04,07,14.80
2016,08,11,04,08,14.80
2016,08,11,04,09,14.80
2016,08,11,04,10,14.70
2016,08,11,04,11,14.70
2016,08,11,04,12,14.70
2016,08,11,04,14,14.70
2016,08,11,04,15,14.70
2016,08,11,04,16,14.60
2016,08,11,04,17,14.60
2016,08,11,04,18,14.60
2016,08,11,04,19,14.60
2016,08,11,04,20,14.60
2016,08,11,04,21,14.60
2016,08,11,04,22,14.60
2016,08,11,04,23,14.50
2016,08,11,04,24,14.50
2016,08,11,04,25,14.50
2016,08,11,04,26,14.50
2016,08,11,04,29,14.50
2016,08,11,04,30,14.50
2016,08,11,04,31,14.50
2016,08,11,04,32,14.40
2016,08,11,04,33,14.40
2016,08,11,04,34,14.40
2016,08,11,04,35,14.40
2016,08,11,04,36,14.40
2016,08,11,04,37,14.40
2016,08,11,04,38,14.40
2016,08,11,04,40,14.30
2016,08,11,04,41,14.30
2016,08,11,04,42,14.30
2016,08,11,04,43,14.30
2016,08,11,04,44,14.30
2016,08,11,04,45,14.20
2016,08,11,04,46,14.30
2016,08,11,04,47,14.20
2016,08,11,04,48,14.20
2016,08,11,04,49,14.20
2016,08,11,04,50,14.20
2016,08,11,04,51,14.20
2016,08,11,04,52,14.20
2016,08,11,04,53,14.20
2016,08,11,04,54,14.20
2016,08,11,04,55,14.20
2016,08,11,04,56,14.20
2016,08,11,04,57,14.20
2016,08,11,04,58,14.20
2016,08,11,04,59,14.20
2016,08,11,05,00,14.20
2016,08,11,05,02,14.20
2016,08,11,05,03,14.20
2016,08,11,05,04,14.20
2016,08,11,05,05,14.20
2016,08,11,05,06,14.20
2016,08,11,05,07,14.20
2016,08,11,05,08,14.20
2016,08,11,05,09,14.10
2016,08,11,05,10,14.10
2016,08,11,05,11,14.10
2016,08,11,05,12,14.10
2016,08,11,05,13,14.10
2016,08,11,05,14,14.10
2016,08,11,05,16,14.10
2016,08,11,05,17,14.10
2016,08,11,05,18,14.10
2016,08,11,05,19,14.10
2016,08,11,05,20,14.00
2016,08,11,05,21,14.00
2016,08,11,05,22,14.00
2016,08,11,05,23,14.00
2016,08,11,05,24,14.00
2016,08,11,05,25,14.00
2016,08,11,05,26,13.90
2016,08,11,05,27,13.90
2016,08,11,05,28,13.90
2016,08,11,05,29,13.90
2016,08,11,05,30,13.90
2016,08,11,05,31,13.90
2016,08,11,05,32,13.90
2016,08,11,05,33,13.90
2016,08,11,05,34,13.90
2016,08,11,05,35,13.90
2016,08,11,05,36,13.90
2016,08,11,05,37,13.80
2016,08,11,05,38,13.80
2016,08,11,05,39,13.80
2016,08,11,05,40,13.80
2016,08,11,05,41,13.80
2016,08,11,05,42,13.80
2016,08,11,05,43,13.80
2016,08,11,05,44,13.80
2016,08,11,05,46,13.80
2016,08,11,05,47,13.70
2016,08,11,05,48,13.70
2016,08,11,05,49,13.70
2016,08,11,05,50,13.70
2016,08,11,05,52,13.70
2016,08,11,05,53,13.70
2016,08,11,05,54,13.70
2016,08,11,05,55,13.60
2016,08,11,05,56,13.60
2016,08,11,05,57,13.60
2016,08,11,05,58,13.60
2016,08,11,05,59,13.60
2016,08,11,06,00,13.60
2016,08,11,06,01,13.60
2016,08,11,06,02,13.60
2016,08,11,06,03,13.60
2016,08,11,06,04,13.60
2016,08,11,06,05,13.60
2016,08,11,06,06,13.60
2016,08,11,06,07,13.60
2016,08,11,06,08,13.60
2016,08,11,06,09,13.60
2016,08,11,06,10,13.60
2016,08,11,06,11,13.50
2016,08,11,06,12,13.50
2016,08,11,06,13,13.50
2016,08,11,06,14,13.50
2016,08,11,06,15,13.60
2016,08,11,06,16,13.60
2016,08,11,06,17,13.60
2016,08,11,06,18,13.60
2016,08,11,06,19,13.50
2016,08,11,06,20,13.60
2016,08,11,06,21,13.50
2016,08,11,06,22,13.50
2016,08,11,06,23,13.50
2016,08,11,06,24,13.50
2016,08,11,06,25,13.50
2016,08,11,06,26,13.50
2016,08,11,06,27,13.50
2016,08,11,06,28,13.50
2016,08,11,06,30,13.50
2016,08,11,06,31,13.50
2016,08,11,06,32,13.50
2016,08,11,06,33,13.50
2016,08,11,06,34,13.50
2016,08,11,06,35,13.50
2016,08,11,06,36,13.40
2016,08,11,06,37,13.40
2016,08,11,06,38,13.50
2016,08,11,06,40,13.40
2016,08,11,06,41,13.40
2016,08,11,06,42,13.40
2016,08,11,06,43,13.40
2016,08,11,06,44,13.40
2016,08,11,06,45,13.40
2016,08,11,06,46,13.40
2016,08,11,06,47,13.40
2016,08,11,06,48,13.40
2016,08,11,06,49,13.50
2016,08,11,06,50,13.50
2016,08,11,06,51,13.50
2016,08,11,06,52,13.50
2016,08,11,06,53,13.60
2016,08,11,06,55,13.60
2016,08,11,06,56,13.70
2016,08,11,06,57,13.70
2016,08,11,06,58,13.70
2016,08,11,06,59,13.70
2016,08,11,07,00,13.80
2016,08,11,07,01,13.80
2016,08,11,07,02,13.80
2016,08,11,07,03,13.80
2016,08,11,07,04,13.80
2016,08,11,07,05,13.80
2016,08,11,07,06,13.80
2016,08,11,07,07,13.90
2016,08,11,07,09,13.90
2016,08,11,07,10,13.90
2016,08,11,07,11,13.90
2016,08,11,07,12,14.00
2016,08,11,07,14,14.00
2016,08,11,07,15,14.10
2016,08,11,07,16,14.10
2016,08,11,07,17,14.10
2016,08,11,07,18,14.10
2016,08,11,07,19,14.20
2016,08,11,07,20,14.20
2016,08,11,07,21,14.20
2016,08,11,07,22,14.20
2016,08,11,07,23,14.30
2016,08,11,07,24,14.30
2016,08,11,07,25,14.30
2016,08,11,07,26,14.40
2016,08,11,07,28,14.40
2016,08,11,07,29,14.50
2016,08,11,07,30,14.60
2016,08,11,07,31,14.60
2016,08,11,07,32,14.60
2016,08,11,07,33,14.70
2016,08,11,07,34,14.70
2016,08,11,07,35,14.80
2016,08,11,07,36,14.80
2016,08,11,07,37,14.80
2016,08,11,07,38,14.90
2016,08,11,07,39,14.90
2016,08,11,07,40,14.90
2016,08,11,07,41,15.00
2016,08,11,07,42,15.10
2016,08,11,07,43,15.10
2016,08,11,07,44,15.20
2016,08,11,07,45,15.20
2016,08,11,07,46,15.30
2016,08,11,07,47,15.40
2016,08,11,07,48,15.40
2016,08,11,07,49,15.50
2016,08,11,07,51,15.70
2016,08,11,07,52,15.80
2016,08,11,07,53,15.80
2016,08,11,07,54,15.90
2016,08,11,07,55,16.10
2016,08,11,07,56,16.20
2016,08,11,07,57,16.20
2016,08,11,07,58,16.30
2016,08,11,07,59,16.30
2016,08,11,08,00,16.40
2016,08,11,08,01,16.40
2016,08,11,08,02,16.50
2016,08,11,08,03,16.60
2016,08,11,08,04,16.60
2016,08,11,08,05,16.70
2016,08,11,08,06,16.80
2016,08,11,08,07,16.80
2016,08,11,08,08,16.90
2016,08,11,08,09,17.00
2016,08,11,08,10,17.10
2016,08,11,08,11,17.10
2016,08,11,08,12,17.20
2016,08,11,08,13,17.20
2016,08,11,08,14,17.30
2016,08,11,08,15,17.30
2016,08,11,08,16,17.40
2016,08,11,08,17,17.40
2016,08,11,08,18,17.50
2016,08,11,08,19,17.50
2016,08,11,08,20,17.60
2016,08,11,08,21,17.60
2016,08,11,08,22,17.60
2016,08,11,08,23,17.70
2016,08,11,08,24,17.70
2016,08,11,08,25,17.70
2016,08,11,08,26,17.70
2016,08,11,08,27,17.70
2016,08,11,08,28,17.70
2016,08,11,08,29,17.70
2016,08,11,08,30,17.80
2016,08,11,08,31,17.80
2016,08,11,08,33,17.90
2016,08,11,08,34,18.00
2016,08,11,08,35,18.10
2016,08,11,08,36,18.10
2016,08,11,08,37,18.20
2016,08,11,08,38,18.30
2016,08,11,08,39,18.30
2016,08,11,08,40,18.40
2016,08,11,08,41,18.40
2016,08,11,08,42,18.40
2016,08,11,08,43,18.40
2016,08,11,08,44,18.40
2016,08,11,08,45,18.40
2016,08,11,08,46,18.50
2016,08,11,08,47,18.50
2016,08,11,08,48,18.60
2016,08,11,08,49,18.60
2016,08,11,08,50,18.60
2016,08,11,08,51,18.60
2016,08,11,08,52,18.60
2016,08,11,08,53,18.60
2016,08,11,08,54,18.70
2016,08,11,08,55,18.70
2016,08,11,08,56,18.70
2016,08,11,08,57,18.80
2016,08,11,08,58,18.80
2016,08,11,08,59,18.90
2016,08,11,09,00,19.00
2016,08,11,09,01,19.10
2016,08,11,09,02,19.10
2016,08,11,09,03,19.20
2016,08,11,09,04,19.20
2016,08,11,09,05,19.30
2016,08,11,09,06,19.30
2016,08,11,09,07,19.30
2016,08,11,09,08,19.40
2016,08,11,09,09,19.50
2016,08,11,09,10,19.60
2016,08,11,09,11,19.70
2016,08,11,09,13,19.80
2016,08,11,09,14,19.90
2016,08,11,09,15,20.00
2016,08,11,09,16,20.10
2016,08,11,09,17,20.20
2016,08,11,09,18,20.20
2016,08,11,09,19,20.30
2016,08,11,09,20,20.30
2016,08,11,09,21,20.30
2016,08,11,09,22,20.30
2016,08,11,09,23,20.30
2016,08,11,09,24,20.30
2016,08,11,09,25,20.20
2016,08,11,09,26,20.20
2016,08,11,09,27,20.20
2016,08,11,09,28,20.30
2016,08,11,09,29,20.30
2016,08,11,09,30,20.40
2016,08,11,09,31,20.40
2016,08,11,09,32,20.50
2016,08,11,09,33,20.60
2016,08,11,09,34,20.70
2016,08,11,09,35,20.70
2016,08,11,09,36,20.80
2016,08,11,09,37,20.80
2016,08,11,09,38,20.80
2016,08,11,09,39,20.90
2016,08,11,09,40,21.00
2016,08,11,09,41,21.10
2016,08,11,09,42,21.20
2016,08,11,09,43,21.20
2016,08,11,09,44,21.30
2016,08,11,09,45,21.40
2016,08,11,09,46,21.40
2016,08,11,09,47,21.40
2016,08,11,09,48,21.40
2016,08,11,09,49,21.50
2016,08,11,09,50,21.60
2016,08,11,09,51,21.60
2016,08,11,09,52,21.60
2016,08,11,09,53,21.60
2016,08,11,09,54,21.60
2016,08,11,09,55,21.60
2016,08,11,09,56,21.60
2016,08,11,09,57,21.50
2016,08,11,09,58,21.60
2016,08,11,09,59,21.60
2016,08,11,10,00,21.60
2016,08,11,10,01,21.60
2016,08,11,10,02,21.70
2016,08,11,10,03,21.80
2016,08,11,10,04,21.80
2016,08,11,10,05,21.80
2016,08,11,10,06,21.90
2016,08,11,10,07,21.90
2016,08,11,10,08,21.90
2016,08,11,10,09,21.90
2016,08,11,10,10,21.90
2016,08,11,10,11,22.00
2016,08,11,10,12,22.10
2016,08,11,10,13,22.10
2016,08,11,10,14,22.20
2016,08,11,10,15,22.20
2016,08,11,10,16,22.20
2016,08,11,10,17,22.30
2016,08,11,10,18,22.30
2016,08,11,10,19,22.30
2016,08,11,10,20,22.30
2016,08,11,10,21,22.20
2016,08,11,10,22,22.20
2016,08,11,10,23,22.10
2016,08,11,10,24,22.10
2016,08,11,10,25,22.00
2016,08,11,10,26,22.00
2016,08,11,10,27,22.00
2016,08,11,10,28,22.00
2016,08,11,10,29,22.00
2016,08,11,10,30,22.00
2016,08,11,10,31,22.00
2016,08,11,10,32,22.00
2016,08,11,10,33,21.90
2016,08,11,10,34,21.90
2016,08,11,10,35,21.90
2016,08,11,10,36,21.90
2016,08,11,10,37,21.90
2016,08,11,10,38,21.90
2016,08,11,10,39,21.90
2016,08,11,10,40,21.90
2016,08,11,10,41,21.90
2016,08,11,10,42,22.00
2016,08,11,10,43,22.10
2016,08,11,10,44,22.10
2016,08,11,10,45,22.20
2016,08,11,10,46,22.20
2016,08,11,10,47,22.20
2016,08,11,10,48,22.20
2016,08,11,10,49,22.30
2016,08,11,10,50,22.40
2016,08,11,10,51,22.40
2016,08,11,10,52,22.50
2016,08,11,10,53,22.60
2016,08,11,10,54,22.60
2016,08,11,10,55,22.70
2016,08,11,10,56,22.70
2016,08,11,10,57,22.70
2016,08,11,10,58,22.70
2016,08,11,10,59,22.80
2016,08,11,11,00,22.80
2016,08,11,11,01,22.90
2016,08,11,11,02,22.90
2016,08,11,11,03,23.10
2016,08,11,11,04,23.20
2016,08,11,11,05,23.20
2016,08,11,11,06,23.30
2016,08,11,11,07,23.40
2016,08,11,11,08,23.40
2016,08,11,11,09,23.50
2016,08,11,11,10,23.60
2016,08,11,11,11,23.60
2016,08,11,11,12,23.70
2016,08,11,11,13,23.70
2016,08,11,11,14,23.70
2016,08,11,11,15,23.70
2016,08,11,11,16,23.70
2016,08,11,11,17,23.60
2016,08,11,11,18,23.70
2016,08,11,11,19,23.70
2016,08,11,11,20,23.70
2016,08,11,11,21,23.80
2016,08,11,11,22,23.80
2016,08,11,11,23,23.90
2016,08,11,11,24,23.90
2016,08,11,11,25,24.00
2016,08,11,11,26,24.10
2016,08,11,11,27,24.10
2016,08,11,11,28,24.20
2016,08,11,11,29,24.20
2016,08,11,11,30,24.30
2016,08,11,11,31,24.30
2016,08,11,11,32,24.40
2016,08,11,11,33,24.40
2016,08,11,11,34,24.50
2016,08,11,11,35,24.60
2016,08,11,11,36,24.60
2016,08,11,11,37,24.60
2016,08,11,11,38,24.60
2016,08,11,11,39,24.60
2016,08,11,11,40,24.60
2016,08,11,11,41,24.50
2016,08,11,11,42,24.40
2016,08,11,11,43,24.40
2016,08,11,11,44,24.40
2016,08,11,11,45,24.40
2016,08,11,11,46,24.40
2016,08,11,11,47,24.40
2016,08,11,11,48,24.60
2016,08,11,11,49,24.60
2016,08,11,11,50,24.60
2016,08,11,11,51,24.60
2016,08,11,11,52,24.60
2016,08,11,11,53,24.60
2016,08,11,11,54,24.60
2016,08,11,11,55,24.60
2016,08,11,11,56,24.60
2016,08,11,11,57,24.60
2016,08,11,11,58,24.60
2016,08,11,11,59,24.70
2016,08,11,12,00,24.70
2016,08,11,12,01,24.80
2016,08,11,12,02,24.80
2016,08,11,12,03,24.80
2016,08,11,12,04,24.80
2016,08,11,12,05,24.80
2016,08,11,12,06,24.80
2016,08,11,12,07,24.80
2016,08,11,12,08,24.80
2016,08,11,12,09,24.90
2016,08,11,12,10,24.90
2016,08,11,12,11,25.00
2016,08,11,12,12,25.00
2016,08,11,12,13,25.00
2016,08,11,12,14,24.90
2016,08,11,12,15,24.80
2016,08,11,12,16,24.80
2016,08,11,12,17,24.70
2016,08,11,12,18,24.80
2016,08,11,12,19,24.80
2016,08,11,12,20,24.90
2016,08,11,12,21,24.90
2016,08,11,12,22,25.00
2016,08,11,12,23,25.00
2016,08,11,12,24,25.00
2016,08,11,12,25,24.90
2016,08,11,12,26,24.90
2016,08,11,12,27,24.90
2016,08,11,12,28,25.00
2016,08,11,12,29,25.10
2016,08,11,12,30,25.10
2016,08,11,12,31,25.10
2016,08,11,12,32,25.20
2016,08,11,12,33,25.20
2016,08,11,12,34,25.20
2016,08,11,12,35,25.30
2016,08,11,12,36,25.30
2016,08,11,12,37,25.30
2016,08,11,12,38,25.30
2016,08,11,12,39,25.30
2016,08,11,12,40,25.30
2016,08,11,12,41,25.30
2016,08,11,12,42,25.30
2016,08,11,12,43,25.30
2016,08,11,12,44,25.40
2016,08,11,12,45,25.50
2016,08,11,12,46,25.60
2016,08,11,12,47,25.60
2016,08,11,12,48,25.60
2016,08,11,12,49,25.60
2016,08,11,12,50,25.60
2016,08,11,12,51,25.60
2016,08,11,12,52,25.60
2016,08,11,12,53,25.70
2016,08,11,12,54,25.70
2016,08,11,12,55,25.80
2016,08,11,12,56,25.80
2016,08,11,12,57,25.90
2016,08,11,12,58,25.90
2016,08,11,12,59,25.90
2016,08,11,13,00,25.90
2016,08,11,13,01,25.90
2016,08,11,13,02,26.00
2016,08,11,13,03,26.00
2016,08,11,13,04,26.00
2016,08,11,13,05,26.10
2016,08,11,13,06,26.10
2016,08,11,13,07,26.10
2016,08,11,13,08,26.10
2016,08,11,13,09,26.10
2016,08,11,13,10,26.10
2016,08,11,13,11,26.00
2016,08,11,13,12,26.00
2016,08,11,13,13,26.10
2016,08,11,13,14,26.10
2016,08,11,13,15,26.20
2016,08,11,13,16,26.20
2016,08,11,13,17,26.20
2016,08,11,13,18,26.20
2016,08,11,13,19,26.20
2016,08,11,13,20,26.20
2016,08,11,13,21,26.20
2016,08,11,13,22,26.20
2016,08,11,13,23,26.20
2016,08,11,13,24,26.30
2016,08,11,13,25,26.30
2016,08,11,13,26,26.40
2016,08,11,13,27,26.40
2016,08,11,13,28,26.40
2016,08,11,13,29,26.50
2016,08,11,13,30,26.60
2016,08,11,13,31,26.70
2016,08,11,13,32,26.80
2016,08,11,13,33,26.80
2016,08,11,13,34,26.80
2016,08,11,13,35,27.20
2016,08,11,13,36,27.30
2016,08,11,13,37,27.20
2016,08,11,13,38,27.20
2016,08,11,13,39,27.20
2016,08,11,13,40,27.20
2016,08,11,13,41,27.20
2016,08,11,13,42,27.10
2016,08,11,13,44,27.10
2016,08,11,13,45,27.10
2016,08,11,13,46,27.00
2016,08,11,13,47,27.00
2016,08,11,13,48,27.00
2016,08,11,13,49,27.00
2016,08,11,13,50,26.90
2016,08,11,13,51,26.90
2016,08,11,13,52,27.00
2016,08,11,13,53,27.00
2016,08,11,13,54,27.10
2016,08,11,13,55,27.10
2016,08,11,13,56,27.20
2016,08,11,13,57,27.20
2016,08,11,13,58,27.10
2016,08,11,13,59,27.10
2016,08,11,14,00,27.10
2016,08,11,14,01,27.10
2016,08,11,14,02,27.10
2016,08,11,14,03,27.10
2016,08,11,14,04,27.10
2016,08,11,14,05,27.10
2016,08,11,14,06,27.10
2016,08,11,14,07,27.10
2016,08,11,14,08,27.10
2016,08,11,14,09,27.10
2016,08,11,14,10,27.10
2016,08,11,14,11,27.10
2016,08,11,14,12,27.10
2016,08,11,14,13,27.20
2016,08,11,14,14,27.20
2016,08,11,14,15,27.20
2016,08,11,14,16,27.30
2016,08,11,14,17,27.30
2016,08,11,14,18,27.40
2016,08,11,14,19,27.60
2016,08,11,14,20,27.70
2016,08,11,14,21,27.80
2016,08,11,14,22,27.90
2016,08,11,14,23,27.90
2016,08,11,14,24,27.90
2016,08,11,14,25,27.90
2016,08,11,14,26,27.90
2016,08,11,14,27,27.90
2016,08,11,14,28,27.90
2016,08,11,14,29,27.90
2016,08,11,14,30,27.90
2016,08,11,14,31,28.00
2016,08,11,14,32,28.10
2016,08,11,14,33,28.10
2016,08,11,14,34,28.20
2016,08,11,14,35,28.20
2016,08,11,14,36,28.30
2016,08,11,14,37,28.30
2016,08,11,14,38,28.20
2016,08,11,14,39,28.20
2016,08,11,14,40,28.20
2016,08,11,14,41,28.20
2016,08,11,14,42,28.10
2016,08,11,14,43,28.10
2016,08,11,14,44,28.10
2016,08,11,14,45,28.20
2016,08,11,14,47,28.20
2016,08,11,14,48,28.20
2016,08,11,14,49,28.20
2016,08,11,14,50,28.20
2016,08,11,14,51,28.20
2016,08,11,14,52,28.30
2016,08,11,14,53,28.30
2016,08,11,14,54,28.30
2016,08,11,14,55,28.30
2016,08,11,14,56,28.30
2016,08,11,14,57,28.40
2016,08,11,14,58,28.40
2016,08,11,14,59,28.50
2016,08,11,15,00,28.50
2016,08,11,15,01,28.60
2016,08,11,15,02,28.70
2016,08,11,15,03,28.70
2016,08,11,15,04,28.70
2016,08,11,15,05,28.70
2016,08,11,15,06,28.70
2016,08,11,15,07,28.70
2016,08,11,15,08,28.70
2016,08,11,15,09,28.70
2016,08,11,15,10,28.70
2016,08,11,15,11,28.80
2016,08,11,15,12,28.80
2016,08,11,15,13,28.90
2016,08,11,15,14,28.90
2016,08,11,15,15,29.00
2016,08,11,15,16,29.10
2016,08,11,15,17,29.20
2016,08,11,15,18,29.20
2016,08,11,15,19,29.20
2016,08,11,15,20,29.20
2016,08,11,15,21,29.20
2016,08,11,15,22,29.20
2016,08,11,15,23,29.10
2016,08,11,15,24,29.10
2016,08,11,15,25,29.10
2016,08,11,15,26,29.10
2016,08,11,15,27,29.10
2016,08,11,15,28,29.10
2016,08,11,15,29,29.20
2016,08,11,15,30,29.20
2016,08,11,15,31,29.20
2016,08,11,15,32,29.10
2016,08,11,15,33,29.10
2016,08,11,15,34,29.10
2016,08,11,15,35,29.10
2016,08,11,15,36,29.10
2016,08,11,15,37,29.10
2016,08,11,15,38,28.90
2016,08,11,15,39,28.90
2016,08,11,15,40,28.90
2016,08,11,15,41,28.80
2016,08,11,15,42,28.90
2016,08,11,15,43,28.90
2016,08,11,15,44,28.90
2016,08,11,15,45,28.80
2016,08,11,15,46,28.80
2016,08,11,15,47,28.80
2016,08,11,15,48,28.80
2016,08,11,15,49,28.80
2016,08,11,15,50,28.80
2016,08,11,15,51,28.80
2016,08,11,15,52,28.70
2016,08,11,15,53,28.70
2016,08,11,15,54,28.70
2016,08,11,15,55,28.70
2016,08,11,15,56,28.70
2016,08,11,15,57,28.80
2016,08,11,15,58,28.80
2016,08,11,15,59,28.80
2016,08,11,16,00,28.90
2016,08,11,16,01,28.90
2016,08,11,16,02,28.90
2016,08,11,16,03,28.90
2016,08,11,16,04,28.90
2016,08,11,16,05,28.80
2016,08,11,16,06,28.80
2016,08,11,16,07,28.70
2016,08,11,16,08,28.70
2016,08,11,16,09,28.70
2016,08,11,16,10,28.70
2016,08,11,16,11,28.70
2016,08,11,16,12,28.70
2016,08,11,16,13,28.70
2016,08,11,16,14,28.70
2016,08,11,16,15,28.70
2016,08,11,16,16,28.70
2016,08,11,16,17,28.70
2016,08,11,16,18,28.80
2016,08,11,16,19,28.80
2016,08,11,16,20,28.80
2016,08,11,16,21,28.80
2016,08,11,16,22,28.90
2016,08,11,16,23,28.90
2016,08,11,16,24,28.90
2016,08,11,16,25,28.90
2016,08,11,16,26,28.90
2016,08,11,16,27,28.90
2016,08,11,16,28,29.00
2016,08,11,16,29,29.00
2016,08,11,16,30,29.00
2016,08,11,16,31,29.00
2016,08,11,16,32,29.00
2016,08,11,16,33,29.10
2016,08,11,16,34,29.10
2016,08,11,16,35,29.10
2016,08,11,16,36,29.10
2016,08,11,16,37,29.10
2016,08,11,16,38,29.10
2016,08,11,16,39,29.10
2016,08,11,16,40,29.10
2016,08,11,16,41,29.10
2016,08,11,16,42,29.20
2016,08,11,16,43,29.20
2016,08,11,16,44,29.30
2016,08,11,16,45,29.30
2016,08,11,16,46,29.30
2016,08,11,16,47,29.20
2016,08,11,16,48,29.20
2016,08,11,16,49,29.20
2016,08,11,16,50,29.30
2016,08,11,16,51,29.30
2016,08,11,16,52,29.30
2016,08,11,16,53,29.30
2016,08,11,16,54,29.30
2016,08,11,16,55,29.30
2016,08,11,16,56,29.20
2016,08,11,16,57,29.20
2016,08,11,16,58,29.20
2016,08,11,17,00,29.20
2016,08,11,17,01,29.20
2016,08,11,17,02,29.20
2016,08,11,17,03,29.20
2016,08,11,17,04,29.20
2016,08,11,17,05,29.20
2016,08,11,17,06,29.20
2016,08,11,17,07,29.20
2016,08,11,17,08,29.20
2016,08,11,17,09,29.20
2016,08,11,17,10,29.20
2016,08,11,17,11,29.20
2016,08,11,17,12,29.20
2016,08,11,17,13,29.20
2016,08,11,17,14,29.20
2016,08,11,17,15,29.20
2016,08,11,17,16,29.20
2016,08,11,17,17,29.20
2016,08,11,17,18,29.20
2016,08,11,17,20,29.20
2016,08,11,17,21,29.20
2016,08,11,17,24,29.20
2016,08,11,17,25,29.30
2016,08,11,17,26,29.30
2016,08,11,17,27,29.30
2016,08,11,17,28,29.30
2016,08,11,17,29,29.30
2016,08,11,17,30,29.30
2016,08,11,17,31,29.30
2016,08,11,17,32,29.30
2016,08,11,17,33,29.30
2016,08,11,17,34,29.30
2016,08,11,17,35,29.30
2016,08,11,17,36,29.30
2016,08,11,17,37,29.30
2016,08,11,17,38,29.30
2016,08,11,17,39,29.30
2016,08,11,17,40,29.20
2016,08,11,17,41,29.20
2016,08,11,17,42,29.20
2016,08,11,17,43,29.20
2016,08,11,17,44,29.20
2016,08,11,17,45,29.20
2016,08,11,17,46,29.20
2016,08,11,17,47,29.20
2016,08,11,17,48,29.20
2016,08,11,17,49,29.20
2016,08,11,17,50,29.20
2016,08,11,17,51,29.20
2016,08,11,17,52,29.20
2016,08,11,17,53,29.20
2016,08,11,17,54,29.20
2016,08,11,17,55,29.20
2016,08,11,17,56,29.10
2016,08,11,17,57,29.10